Regional Weather Roundup
Issued by NWS

Home | Current Version | Previous Version | Graphics & Text | Print | Product List | Glossary On
Versions: 1 2 3 4 5 6 7 8 9 10 11 12 13 14 15 16 17 18 19 20 21 22 23 24 25 26 27 28 29 30 31 32 33 34 35 36 37 38 39 40 41 42 43 44 45 46 47 48 49 50
000
ASUS45 KTFX 112210
RWRMT
MONTANA REGIONAL WEATHER ROUNDUP
NATIONAL WEATHER SERVICE GREAT FALLS MT
300 PM MST THU FEB 11 2016

NOTE: "FAIR" INDICATES FEW OR NO CLOUDS BELOW 12000 FEET WITH NO
SIGNIFICANT WEATHER AND/OR OBSTRUCTIONS TO VISIBILITY.

MTZ001>007-043-112300-
WEST OF THE DIVIDE

CITY           SKY/WX    TMP DP  RH WIND       PRES   REMARKS
KALISPELL      MOSUNNY   46  33  60 N3        30.26F
MISSOULA       PTSUNNY   47  34  60 SW3       30.25F
BUTTE          CLOUDY    43  29  57 CALM      30.25F
MULLAN PASS    CLOUDY    37  27  67 VRB5      30.25F
ANACONDA         N/A     45  28  53 N6        30.25S
DEER LODGE       N/A     48  30  49 CALM      30.26F
HAMILTON         N/A     48  34  57 N3        30.24F
PLAINS           N/A     52  37  56 CALM      30.25F
$$

MTZ008-052>055-112300-
SOUTHWEST MONTANA

CITY           SKY/WX    TMP DP  RH WIND       PRES   REMARKS
BOZEMAN        CLOUDY    41  29  62 CALM      30.24F
DILLON         CLOUDY    42  28  57 SW20      30.24F
ENNIS          CLOUDY    48  28  46 S9        30.31S
TWIN BRIDGES     N/A     41  28  60 E5        30.21F
$$

MTZ009-010-012-014-046-048-049-054-112300-
EAST SLOPES AND CENTRAL MONTANA

CITY           SKY/WX    TMP DP  RH WIND       PRES   REMARKS
CUT BANK       MOSUNNY   47  31  53 N15       30.20R
GREAT FALLS    SUNNY     56  15  20 NW5       30.18S
MALMSTROM AFB  SUNNY     54  21  27 NE16      30.19S
HELENA         MOSUNNY   54  25  32 NW6       30.21F
CHOTEAU          N/A     54  14  20 NE12      30.20S
CONRAD           N/A     52  32  46 NW15      30.20S
$$

MTZ011-013-016-021-045-047-050-051-112300-
NORTH CENTRAL MONTANA

CITY           SKY/WX    TMP DP  RH WIND       PRES   REMARKS
HAVRE          CLOUDY    38  32  79 W12       30.22R WCI  30
LEWISTOWN      SUNNY     49  27  42 NW10      30.18R
N BAR RANCH      N/A     50  23  34 NW20G26   30.18R
CHINOOK          N/A     43  34  70 W12       30.20R
$$

MTZ017>020-022>027-061-062-112300-
NORTHEAST MONTANA

CITY           SKY/WX    TMP DP  RH WIND       PRES   REMARKS
GLASGOW        CLOUDY    32  24  72 N6        30.20R WCI  26
JORDAN           N/A     37  31  78 N8        30.17R WCI  31
SIDNEY         PTSUNNY   27  19  74 N6        30.20R WCI  20
WOLF POINT     PTSUNNY   31  21  66 E5        30.24R
PLENTYWOOD       N/A     23  16  74 NW5       30.19R
POPLAR           N/A     27  18  69 N5        30.23R
SCOBEY           N/A     24  13  63 N6        30.17R WCI  17
$$

MTZ028>42-056>058-112300-
SOUTHCENTRAL AND SOUTHEAST MONTANA

CITY           SKY/WX    TMP DP  RH WIND       PRES   REMARKS
BAKER          CLOUDY    33  27  78 N14       30.12R WCI  23
BILLINGS       PTSUNNY   59  19  21 NW17      30.15R
LIVINGSTON     SUNNY     57  18  21 W20       30.20S
MILES CITY     CLOUDY    43  32  65 N13       30.15R
EKALAKA          N/A     39  30  70 NW16      30.06R WCI  30
FORSYTH          N/A     50  32  50 N10G18    30.14R
LAUREL           N/A     59  20  22 W17       30.12F
ROUNDUP          N/A     57  20  24 NW18      30.04S
$$

REGIONAL REPORTS...DAKOTAS

CITY           SKY/WX    TMP DP  RH WIND       PRES   REMARKS
WILLISTON      CLOUDY    25  18  74 N6        30.20R WCI  18
MINOT          CLOUDY    22  12  65 NW8       30.19S WCI  12
DICKINSON      CLOUDY    23  18  81 N8        30.12R HAZE    WCI  14
BEACH          CLOUDY    27  27 100 N8        30.17R WCI  18
CROSBY         CLOUDY    19  18  93 N6        30.22S WCI  11
TIOGA            N/A     19  18  93 N8        30.21F WCI   9
WATFORD CITY   PTSUNNY   25  19  80 N7        30.18R WCI  17
BISMARCK       CLOUDY    27  18  69 N8        30.16R WCI  19
GRAND FORKS    FLURRIES  16   7  67 W8        30.23R WCI   5
FARGO          CLOUDY    15   2  56 NW5       30.22R
BUFFALO SD       N/A     38  30  73 N22       30.00R WCI  27
$$

REGIONAL REPORTS...WYOMING/IDAHO/WASHINGTON

CITY           SKY/WX    TMP DP  RH WIND       PRES   REMARKS
GILLETTE       CLOUDY    52  25  35 NW20G29   30.11R
SHERIDAN       SUNNY     56  24  29 NW25G36   30.13S
BUFFALO WY     SUNNY     51  25  36 N20       30.15R
CODY           MOSUNNY   55  18  22 N13G23    30.16S
YELLOWSTONE LA   N/A     43  18  36 VRB7      30.32F
IDAHO FALLS    CLOUDY    28  23  81 N8        30.38F WCI  20
SALMON         CLOUDY    28  19  69 CALM      30.37F
BOISE          MOSUNNY   46  33  60 CALM      30.34F
SPOKANE        CLOUDY    43  37  79 NE9       30.26F
$$

REGIONAL REPORTS...ALBERTA

CITY           SKY/WX    TMP DP  RH WIND       PRES   REMARKS
EDMONTON       CLOUDY    19  14  79 NE9       30.24R WCI   9
CALGARY        MOSUNNY   45  32  61 E8        30.19S
LETHBRIDGE     PTSUNNY   46  34  61 NW9       30.21S
MEDICINE HAT   PTSUNNY   37  32  81 W10       30.21R WCI  30
WATERTON GATE    N/A     50  21  32 SW12G20     N/A
$$

REGIONAL REPORTS...SASKATCHEWAN

CITY           SKY/WX    TMP DP  RH WIND       PRES   REMARKS
SWIFT CURRENT  FLURRIES  21  18  86 CALM      30.20R
REGINA         PTSUNNY   18  10  73 N12       30.25R WCI   5
SASKATOON      CLOUDY     9   3  78 NE8       30.35R WCI  -4
CYPRESS HILLS    N/A     27  25  93 NW8         N/A  WCI  18
VAL MARIE        N/A     28  25  86 N9          N/A  WCI  20
ASSINIBOIA       N/A     19  14  79 NE7         N/A  WCI  10
$$



USA.gov is the U.S. government's official web portal to all federal, state and local government web resources and services.